Weather Roundup
Issued by NWS Chicago, IL

Home | Current Version | Previous Version | Graphics & Text | Print | Product List | Glossary On
Versions: 1 2 3 4 5 6 7 8 9 10 11 12 13 14 15 16 17 18 19 20 21 22 23 24 25 26 27 28 29 30 31 32 33 34 35 36 37 38 39 40 41 42 43 44 45 46 47 48 49 50
000
NZUS59 KLOT 141158
HRRLOT

CHICAGO AREA WEATHER ROUNDUP
NATIONAL WEATHER SERVICE CHICAGO/ROMEOVILLE IL
700 AM CDT MON JUL 14 2014

NOTE: "FAIR" INDICATES FEW OR NO CLOUDS BELOW 12,000 FEET WITH NO
SIGNIFICANT WEATHER AND/OR OBSTRUCTIONS TO VISIBILITY.

* THESE STATIONS ARE NOT UNDER NWS QUALITY CONTROL. THEY ALSO MAY NOT
  REPORT WEATHER SUCH AS PRECIPITATION OR FOG.

ILZ005-006-012>014-019>023-141300-
NORTHEAST ILLINOIS

CITY           SKY/WX    TMP DP  RH WIND       PRES   REMARKS
OHARE          PTSUNNY   67  57  70 CALM      29.86S
6HR MIN TEMP:  62; 6HR MAX TEMP:  70;

MIDWAY         PTSUNNY   71  58  63 S3        29.86S
6HR MIN TEMP:  67; 6HR MAX TEMP:  73;

AURORA         CLOUDY    63  59  87 CALM      29.88R FOG
6HR MIN TEMP:  59; 6HR MAX TEMP:  65;

WAUKEGAN       PTSUNNY   64  59  83 CALM      29.86R
6HR MIN TEMP:  58; 6HR MAX TEMP:  64;

DUPAGE AIRPORT CLOUDY    64  59  83 SW3       29.87R
6HR MIN TEMP:  61; 6HR MAX TEMP:  68;

WHEELING       PTSUNNY   67  57  70 CALM      29.88R
6HR MIN TEMP:  62; 6HR MAX TEMP:  69;

NORTHERLY IS     N/A     68  59  73 E1          N/A
$$

WIZ051-052-058>065-066-070>072-141300-
SOUTHEAST WISCONSIN

CITY           SKY/WX    TMP DP  RH WIND       PRES   REMARKS
MILWAUKEE      MOSUNNY   65  57  75 CALM      29.87R
6HR MIN TEMP:  60; 6HR MAX TEMP:  67;

KENOSHA*       PTSUNNY   61  59  93 CALM      29.86S
RACINE*        CLOUDY    64  57  78 W5        29.88R
WAUKESHA       PTSUNNY   54  52  94 CALM      29.87S
$$

INZ001>003-010>013-019-020-141300-
NORTHWEST INDIANA

CITY           SKY/WX    TMP DP  RH WIND       PRES   REMARKS
GARY*          MOSUNNY   66  63  88 SE6       29.87F
MICHIGAN CITY* NOT AVBL
RENSSELAER*    NOT AVBL
VALPARAISO     SUNNY     66  58  75 CALM      29.88F
$$

LMZ740>746-141300-
SOUTHERN LAKE MICHIGAN

STATION/POSITION TIME  SKY/WX   TEMP WIND        PRES    VSBY
                                AIR  DIR/SP/G
                 (UTC)          (F)  (DEG/KT/KT) (MB)    (MI)
HARRISON CRIB    1100            69  150/  1/  1   N/A
BURNHAM HARBOR   1100            66  180/  2       N/A
CALUMET HARBOR   1100            67  200/  2/  3 1012.1F
BURNS HARBOR     1100            67  200/  3/  5 1012.2
MICHIGAN CITY    1100            66  130/  4/  5   N/A
$$

ABBREVIATIONS USED IN REMARKS
   TC - TEMPERATURE IN CELSIUS
  WCI - WIND CHILL INDEX
   HX - HEAT INDEX
  VSB - VISIBILITY
$$



USA.gov is the U.S. government's official web portal to all federal, state and local government web resources and services.